date,time,SUV Intensity [MED/Hr],UV Index,Daily total [MED],Since Last [MED]
17/06/2023,00:03:03,0.000,0.0,0.0,0.0
17/06/2023,00:04:04,0.000,0.0,0.0,0.0
17/06/2023,00:05:04,0.000,0.0,0.0,0.0
17/06/2023,00:06:04,0.000,0.0,0.0,0.0
17/06/2023,00:07:04,0.001,0.0,0.0,0.0
17/06/2023,00:08:04,0.000,0.0,0.0,0.0
17/06/2023,00:09:04,0.001,0.0,0.0,0.0
17/06/2023,00:10:04,0.000,0.0,0.0,0.0
17/06/2023,00:11:04,0.000,0.0,0.0,0.0
17/06/2023,00:12:04,0.000,0.0,0.0,0.0
17/06/2023,00:13:04,0.000,0.0,0.0,0.0
17/06/2023,00:14:04,0.000,0.0,0.0,0.0
17/06/2023,00:15:04,0.000,0.0,0.0,0.0
17/06/2023,00:16:04,0.000,0.0,0.0,0.0
17/06/2023,00:17:04,0.001,0.0,0.0,0.0
17/06/2023,00:18:04,0.000,0.0,0.0,0.0
17/06/2023,00:19:04,0.000,0.0,0.0,0.0
17/06/2023,00:20:03,0.000,0.0,0.0,0.0
17/06/2023,00:21:04,0.000,0.0,0.0,0.0
17/06/2023,00:22:04,-0.001,0.0,0.0,0.0
17/06/2023,00:23:04,0.001,0.0,0.0,0.0
17/06/2023,00:24:04,0.001,0.0,0.0,0.0
17/06/2023,00:25:04,-0.001,0.0,0.0,0.0
17/06/2023,00:26:04,0.001,0.0,0.0,0.0
17/06/2023,00:27:04,0.000,0.0,0.0,0.0
17/06/2023,00:28:04,0.000,0.0,0.0,0.0
17/06/2023,00:29:04,0.001,0.0,0.0,0.0
17/06/2023,00:30:04,0.000,0.0,0.0,0.0
17/06/2023,00:31:04,0.000,0.0,0.0,0.0
17/06/2023,00:32:04,0.001,0.0,0.0,0.0
17/06/2023,00:33:04,0.000,0.0,0.0,0.0
17/06/2023,00:34:04,0.000,0.0,0.0,0.0
17/06/2023,00:35:04,-0.001,0.0,0.0,0.0
17/06/2023,00:36:04,0.000,0.0,0.0,0.0
17/06/2023,00:37:04,0.000,0.0,0.0,0.0
17/06/2023,00:38:04,0.000,0.0,0.0,0.0
17/06/2023,00:39:04,0.000,0.0,0.0,0.0
17/06/2023,00:40:04,0.001,0.0,0.0,0.0
17/06/2023,00:41:04,0.000,0.0,0.0,0.0
17/06/2023,00:42:04,0.000,0.0,0.0,0.0
17/06/2023,00:43:07,0.000,0.0,0.0,0.0
17/06/2023,00:44:05,-0.001,0.0,0.0,0.0
17/06/2023,00:45:03,0.000,0.0,0.0,0.0
17/06/2023,00:46:04,0.000,0.0,0.0,0.0
17/06/2023,00:47:04,0.000,0.0,0.0,0.0
17/06/2023,00:48:04,0.000,0.0,0.0,0.0
17/06/2023,00:49:04,0.000,0.0,0.0,0.0
17/06/2023,00:50:04,0.001,0.0,0.0,0.0
17/06/2023,00:51:04,0.001,0.0,0.0,0.0
17/06/2023,00:52:04,0.001,0.0,0.0,0.0
17/06/2023,00:53:03,0.000,0.0,0.0,0.0
17/06/2023,00:54:05,0.000,0.0,0.0,0.0
17/06/2023,00:55:04,0.000,0.0,0.0,0.0
17/06/2023,00:56:04,0.000,0.0,0.0,0.0
17/06/2023,00:57:04,0.000,0.0,0.0,0.0
17/06/2023,00:58:04,0.000,0.0,0.0,0.0
17/06/2023,00:59:04,0.001,0.0,0.0,0.0
17/06/2023,01:00:04,0.000,0.0,0.0,0.0
17/06/2023,01:01:04,0.001,0.0,0.0,0.0
17/06/2023,01:02:04,0.000,0.0,0.0,0.0
17/06/2023,01:03:04,0.000,0.0,0.0,0.0
17/06/2023,01:04:04,0.001,0.0,0.0,0.0
17/06/2023,01:05:04,0.000,0.0,0.0,0.0
17/06/2023,01:06:05,0.000,0.0,0.0,0.0
17/06/2023,01:07:04,0.001,0.0,0.0,0.0
17/06/2023,01:08:05,0.000,0.0,0.0,0.0
17/06/2023,01:09:04,0.001,0.0,0.0,0.0
17/06/2023,01:10:04,0.000,0.0,0.0,0.0
17/06/2023,01:11:04,0.000,0.0,0.0,0.0
17/06/2023,01:12:04,0.000,0.0,0.0,0.0
17/06/2023,01:13:04,0.000,0.0,0.0,0.0
17/06/2023,01:14:04,-0.000,0.0,0.0,0.0
17/06/2023,01:15:04,0.001,0.0,0.0,0.0
17/06/2023,01:16:04,0.001,0.0,0.0,0.0
17/06/2023,01:17:04,0.000,0.0,0.0,0.0
17/06/2023,01:18:04,0.000,0.0,0.0,0.0
17/06/2023,01:19:04,0.000,0.0,0.0,0.0
17/06/2023,01:20:04,0.001,0.0,0.0,0.0
17/06/2023,01:21:04,0.001,0.0,0.0,0.0
17/06/2023,01:22:04,0.001,0.0,0.0,0.0
17/06/2023,01:23:04,0.000,0.0,0.0,0.0
17/06/2023,01:24:04,0.001,0.0,0.0,0.0
17/06/2023,01:25:04,0.001,0.0,0.0,0.0
17/06/2023,01:26:04,0.001,0.0,0.0,0.0
17/06/2023,01:27:04,0.001,0.0,0.0,0.0
17/06/2023,01:28:04,0.001,0.0,0.0,0.0
17/06/2023,01:29:04,0.001,0.0,0.0,0.0
17/06/2023,01:30:04,0.001,0.0,0.0,0.0
17/06/2023,01:31:04,0.001,0.0,0.0,0.0
17/06/2023,01:32:04,0.001,0.0,0.0,0.0
17/06/2023,01:33:04,0.001,0.0,0.0,0.0
17/06/2023,01:34:04,0.001,0.0,0.0,0.0
17/06/2023,01:35:04,0.001,0.0,0.0,0.0
17/06/2023,01:36:04,0.000,0.0,0.0,0.0
17/06/2023,01:37:04,0.000,0.0,0.0,0.0
17/06/2023,01:38:04,0.001,0.0,0.0,0.0
17/06/2023,01:39:04,0.001,0.0,0.0,0.0
17/06/2023,01:40:04,0.001,0.0,0.0,0.0
17/06/2023,01:41:04,0.001,0.0,0.0,0.0
17/06/2023,01:42:04,0.001,0.0,0.0,0.0
17/06/2023,01:43:05,0.001,0.0,0.0,0.0
17/06/2023,01:44:04,0.001,0.0,0.0,0.0
17/06/2023,01:45:04,0.001,0.0,0.0,0.0
17/06/2023,01:46:04,-0.000,0.0,0.0,0.0
17/06/2023,01:47:04,0.001,0.0,0.0,0.0
17/06/2023,01:48:04,0.001,0.0,0.0,0.0
17/06/2023,01:49:04,0.001,0.0,0.0,0.0
17/06/2023,01:50:04,0.001,0.0,0.0,0.0
17/06/2023,01:51:05,0.001,0.0,0.0,0.0
17/06/2023,01:52:09,0.001,0.0,0.0,0.0
17/06/2023,01:53:04,0.001,0.0,0.0,0.0
17/06/2023,01:54:05,0.001,0.0,0.0,0.0
17/06/2023,01:55:05,0.001,0.0,0.0,0.0
17/06/2023,01:56:04,0.001,0.0,0.0,0.0
17/06/2023,01:57:04,0.001,0.0,0.0,0.0
17/06/2023,01:58:03,0.001,0.0,0.0,0.0
17/06/2023,01:59:05,0.001,0.0,0.0,0.0
17/06/2023,02:00:04,0.001,0.0,0.0,0.0
17/06/2023,02:01:04,0.001,0.0,0.0,0.0
17/06/2023,02:02:05,0.001,0.0,0.0,0.0
17/06/2023,02:03:04,0.001,0.0,0.0,0.0
17/06/2023,02:04:05,0.001,0.0,0.0,0.0
17/06/2023,02:05:04,0.001,0.0,0.0,0.0
17/06/2023,02:06:04,0.001,0.0,0.0,0.0
17/06/2023,02:07:05,0.001,0.0,0.0,0.0
17/06/2023,02:08:04,0.001,0.0,0.0,0.0
17/06/2023,02:09:04,0.001,0.0,0.0,0.0
17/06/2023,02:10:04,0.001,0.0,0.0,0.0
17/06/2023,02:11:04,0.001,0.0,0.0,0.0
17/06/2023,02:12:04,0.001,0.0,0.0,0.0
17/06/2023,02:13:03,0.001,0.0,0.0,0.0
17/06/2023,02:14:26,0.001,0.0,0.0,0.0
17/06/2023,02:16:04,0.001,0.0,0.0,0.0
17/06/2023,02:17:05,0.001,0.0,0.0,0.0
17/06/2023,02:18:04,0.001,0.0,0.0,0.0
17/06/2023,02:19:04,0.001,0.0,0.0,0.0
17/06/2023,02:20:05,0.001,0.0,0.0,0.0
17/06/2023,02:21:04,0.001,0.0,0.0,0.0
17/06/2023,02:22:05,0.001,0.0,0.0,0.0
17/06/2023,02:23:04,0.001,0.0,0.0,0.0
17/06/2023,02:24:04,0.002,0.0,0.0,0.0
17/06/2023,02:25:04,0.001,0.0,0.0,0.0
17/06/2023,02:26:04,0.001,0.0,0.0,0.0
17/06/2023,02:27:04,0.001,0.0,0.0,0.0
17/06/2023,02:28:04,0.001,0.0,0.0,0.0
17/06/2023,02:29:04,0.001,0.0,0.0,0.0
17/06/2023,02:30:04,0.002,0.0,0.0,0.0
17/06/2023,02:31:04,0.001,0.0,0.0,0.0
17/06/2023,02:32:04,0.001,0.0,0.0,0.0
17/06/2023,02:33:04,0.002,0.0,0.0,0.0
17/06/2023,02:34:04,0.001,0.0,0.0,0.0
17/06/2023,02:35:04,0.001,0.0,0.0,0.0
17/06/2023,02:36:04,0.002,0.0,0.0,0.0
17/06/2023,02:37:04,0.001,0.0,0.0,0.0
17/06/2023,02:38:04,0.001,0.0,0.0,0.0
17/06/2023,02:39:04,0.001,0.0,0.0,0.0
17/06/2023,02:40:04,0.001,0.0,0.0,0.0
17/06/2023,02:41:05,0.001,0.0,0.0,0.0
17/06/2023,02:42:04,0.001,0.0,0.0,0.0
17/06/2023,02:43:04,0.001,0.0,0.0,0.0
17/06/2023,02:44:04,0.001,0.0,0.0,0.0
17/06/2023,02:45:04,0.001,0.0,0.0,0.0
17/06/2023,02:46:04,0.001,0.0,0.0,0.0
17/06/2023,02:47:04,0.001,0.0,0.0,0.0
17/06/2023,02:48:04,0.002,0.0,0.0,0.0
17/06/2023,02:49:04,0.001,0.0,0.0,0.0
17/06/2023,02:50:05,0.001,0.0,0.0,0.0
17/06/2023,02:51:04,0.001,0.0,0.0,0.0
17/06/2023,02:52:04,0.001,0.0,0.0,0.0
17/06/2023,02:53:04,0.001,0.0,0.0,0.0
17/06/2023,02:54:05,0.001,0.0,0.0,0.0
17/06/2023,02:55:04,0.001,0.0,0.0,0.0
17/06/2023,02:56:04,0.001,0.0,0.0,0.0
17/06/2023,02:57:04,0.001,0.0,0.0,0.0
17/06/2023,02:58:05,0.001,0.0,0.0,0.0
17/06/2023,02:59:04,0.001,0.0,0.0,0.0
17/06/2023,03:00:05,0.001,0.0,0.0,0.0
17/06/2023,03:01:05,0.002,0.0,0.0,0.0
17/06/2023,03:02:05,0.001,0.0,0.0,0.0
17/06/2023,03:03:04,0.002,0.0,0.0,0.0
17/06/2023,03:04:04,0.001,0.0,0.0,0.0
17/06/2023,03:05:05,0.001,0.0,0.0,0.0
17/06/2023,03:06:04,0.001,0.0,0.0,0.0
17/06/2023,03:07:04,0.001,0.0,0.0,0.0
17/06/2023,03:08:04,0.001,0.0,0.0,0.0
17/06/2023,03:09:05,0.001,0.0,0.0,0.0
17/06/2023,03:10:04,0.001,0.0,0.0,0.0
17/06/2023,03:11:05,0.001,0.0,0.0,0.0
17/06/2023,03:12:04,0.001,0.0,0.0,0.0
17/06/2023,03:13:04,0.001,0.0,0.0,0.0
17/06/2023,03:14:05,0.001,0.0,0.0,0.0
17/06/2023,03:15:05,0.002,0.0,0.0,0.0
17/06/2023,03:16:04,0.001,0.0,0.0,0.0
17/06/2023,03:17:04,0.001,0.0,0.0,0.0
17/06/2023,03:18:04,0.002,0.0,0.0,0.0
17/06/2023,03:19:05,0.001,0.0,0.0,0.0
17/06/2023,03:20:04,0.003,0.0,0.0,0.0
17/06/2023,03:21:05,0.001,0.0,0.0,0.0
17/06/2023,03:22:04,0.002,0.0,0.0,0.0
17/06/2023,03:23:04,0.002,0.0,0.0,0.0
17/06/2023,03:24:04,0.003,0.0,0.0,0.0
17/06/2023,03:25:05,0.001,0.0,0.0,0.0
17/06/2023,03:26:04,0.002,0.0,0.0,0.0
17/06/2023,03:27:05,0.002,0.0,0.0,0.0
17/06/2023,03:28:04,0.002,0.0,0.0,0.0
17/06/2023,03:29:05,0.002,0.0,0.0,0.0
17/06/2023,03:30:05,0.001,0.0,0.0,0.0
17/06/2023,03:31:04,0.002,0.0,0.0,0.0
17/06/2023,03:32:04,0.003,0.0,0.0,0.0
17/06/2023,03:33:05,0.002,0.0,0.0,0.0
17/06/2023,03:34:05,0.002,0.0,0.0,0.0
17/06/2023,03:35:04,0.001,0.0,0.0,0.0
17/06/2023,03:36:04,0.002,0.0,0.0,0.0
17/06/2023,03:37:05,0.002,0.0,0.0,0.0
17/06/2023,03:38:04,0.002,0.0,0.0,0.0
17/06/2023,03:39:05,0.003,0.0,0.0,0.0
17/06/2023,03:40:04,0.002,0.0,0.0,0.0
17/06/2023,03:41:04,0.002,0.0,0.0,0.0
17/06/2023,03:42:04,0.002,0.0,0.0,0.0
17/06/2023,03:43:04,0.003,0.0,0.0,0.0
17/06/2023,03:44:04,0.003,0.0,0.0,0.0
17/06/2023,03:45:04,0.002,0.0,0.0,0.0
17/06/2023,03:46:04,0.002,0.0,0.0,0.0
17/06/2023,03:47:04,0.002,0.0,0.0,0.0
17/06/2023,03:48:04,0.003,0.0,0.0,0.0
17/06/2023,03:49:04,0.003,0.0,0.0,0.0
17/06/2023,03:50:04,0.003,0.0,0.0,0.0
17/06/2023,03:51:05,0.004,0.0,0.0,0.0
17/06/2023,03:52:04,0.003,0.0,0.0,0.0
17/06/2023,03:53:04,0.003,0.0,0.0,0.0
17/06/2023,03:54:04,0.003,0.0,0.0,0.0
17/06/2023,03:55:05,0.004,0.0,0.0,0.0
17/06/2023,03:56:04,0.002,0.0,0.0,0.0
17/06/2023,03:57:05,0.004,0.0,0.0,0.0
17/06/2023,03:58:04,0.004,0.0,0.0,0.0
17/06/2023,03:59:05,0.004,0.0,0.0,0.0
17/06/2023,04:00:04,0.004,0.0,0.0,0.0
17/06/2023,04:01:04,0.004,0.0,0.0,0.0
17/06/2023,04:02:04,0.004,0.0,0.0,0.0
17/06/2023,04:03:04,0.005,0.0,0.0,0.0
17/06/2023,04:04:04,0.005,0.0,0.0,0.0
17/06/2023,04:05:04,0.005,0.0,0.0,0.0
17/06/2023,04:06:05,0.005,0.0,0.0,0.0
17/06/2023,04:07:04,0.005,0.0,0.0,0.0
17/06/2023,04:08:04,0.005,0.0,0.0,0.0
17/06/2023,04:09:04,0.005,0.0,0.0,0.0
17/06/2023,04:10:06,0.006,0.0,0.0,0.0
17/06/2023,04:11:06,0.006,0.0,0.0,0.0
17/06/2023,04:12:04,0.005,0.0,0.0,0.0
17/06/2023,04:13:05,0.006,0.0,0.0,0.0
17/06/2023,04:14:04,0.007,0.0,0.0,0.0
17/06/2023,04:15:05,0.007,0.0,0.0,0.0
17/06/2023,04:16:04,0.006,0.0,0.0,0.0
17/06/2023,04:17:04,0.007,0.0,0.0,0.0
17/06/2023,04:18:05,0.007,0.0,0.001,0.001
17/06/2023,04:19:04,0.008,0.0,0.001,0.0
17/06/2023,04:20:05,0.008,0.0,0.001,0.0
17/06/2023,04:21:04,0.008,0.0,0.001,0.0
17/06/2023,04:22:04,0.008,0.0,0.001,0.0
17/06/2023,04:23:05,0.008,0.0,0.001,0.0
17/06/2023,04:24:04,0.009,0.0,0.001,0.0
17/06/2023,04:25:04,0.009,0.0,0.002,0.001
17/06/2023,04:26:05,0.009,0.0,0.002,0.0
17/06/2023,04:27:04,0.009,0.0,0.002,0.0
17/06/2023,04:28:04,0.010,0.0,0.002,0.0
17/06/2023,04:29:04,0.009,0.0,0.002,0.0
17/06/2023,04:30:05,0.009,0.0,0.002,0.0
17/06/2023,04:31:04,0.010,0.0,0.002,0.0
17/06/2023,04:32:05,0.011,0.0,0.003,0.001
17/06/2023,04:33:04,0.012,0.0,0.003,0.0
17/06/2023,04:34:05,0.011,0.0,0.003,0.0
17/06/2023,04:35:04,0.013,0.0,0.003,0.0
17/06/2023,04:36:05,0.012,0.0,0.003,0.0
17/06/2023,04:37:04,0.013,0.0,0.004,0.001
17/06/2023,04:38:04,0.012,0.0,0.004,0.0
17/06/2023,04:39:04,0.013,0.0,0.004,0.0
17/06/2023,04:40:05,0.014,0.0,0.004,0.0
17/06/2023,04:41:04,0.015,0.0,0.005,0.001
17/06/2023,04:42:05,0.015,0.0,0.005,0.0
17/06/2023,04:43:04,0.016,0.0,0.005,0.0
17/06/2023,04:44:04,0.016,0.0,0.005,0.0
17/06/2023,04:45:05,0.016,0.0,0.006,0.001
17/06/2023,04:46:04,0.017,0.0,0.006,0.0
17/06/2023,04:47:05,0.017,0.0,0.006,0.0
17/06/2023,04:48:05,0.018,0.0,0.006,0.0
17/06/2023,04:49:04,0.018,0.0,0.007,0.001
17/06/2023,04:50:05,0.019,0.0,0.007,0.0
17/06/2023,04:51:04,0.019,0.0,0.007,0.0
17/06/2023,04:52:05,0.019,0.0,0.008,0.001
17/06/2023,04:53:04,0.020,0.0,0.008,0.0
17/06/2023,04:54:04,0.021,0.0,0.008,0.0
17/06/2023,04:55:04,0.021,0.0,0.009,0.001
17/06/2023,04:56:04,0.021,0.0,0.009,0.0
17/06/2023,04:57:04,0.022,0.0,0.009,0.0
17/06/2023,04:58:05,0.023,0.0,0.01,0.001
17/06/2023,04:59:04,0.023,0.0,0.01,0.0
17/06/2023,05:00:04,0.025,0.0,0.011,0.001
17/06/2023,05:01:04,0.025,0.0,0.011,0.0
17/06/2023,05:02:05,0.026,0.0,0.011,0.0
17/06/2023,05:03:05,0.026,0.0,0.012,0.001
17/06/2023,05:04:04,0.027,0.0,0.012,0.0
17/06/2023,05:05:04,0.028,0.0,0.013,0.001
17/06/2023,05:06:04,0.029,0.0,0.013,0.0
17/06/2023,05:07:05,0.030,0.0,0.014,0.001
17/06/2023,05:08:05,0.032,0.0,0.014,0.0
17/06/2023,05:09:04,0.031,0.0,0.015,0.001
17/06/2023,05:10:05,0.032,0.0,0.015,0.0
17/06/2023,05:11:04,0.034,0.0,0.016,0.001
17/06/2023,05:12:05,0.034,0.0,0.016,0.0
17/06/2023,05:13:04,0.034,0.0,0.017,0.001
17/06/2023,05:14:04,0.036,0.0,0.018,0.001
17/06/2023,05:15:05,0.037,0.0,0.018,0.0
17/06/2023,05:16:04,0.038,0.0,0.019,0.001
17/06/2023,05:17:04,0.038,0.0,0.019,0.0
17/06/2023,05:18:05,0.040,0.0,0.02,0.001
17/06/2023,05:19:04,0.041,0.0,0.021,0.001
17/06/2023,05:20:05,0.042,0.0,0.021,0.0
17/06/2023,05:21:05,0.043,0.0,0.022,0.001
17/06/2023,05:22:04,0.045,0.0,0.023,0.001
17/06/2023,05:23:04,0.044,0.0,0.024,0.001
17/06/2023,05:24:05,0.046,0.0,0.024,0.0
17/06/2023,05:25:04,0.047,0.0,0.025,0.001
17/06/2023,05:26:04,0.048,0.0,0.026,0.001
17/06/2023,05:27:04,0.050,0.0,0.027,0.001
17/06/2023,05:28:04,0.051,0.0,0.028,0.001
17/06/2023,05:29:05,0.052,0.0,0.029,0.001
17/06/2023,05:30:05,0.054,0.0,0.029,0.0
17/06/2023,05:31:04,0.054,0.0,0.03,0.001
17/06/2023,05:32:05,0.055,0.0,0.031,0.001
17/06/2023,05:33:04,0.056,0.0,0.032,0.001
17/06/2023,05:34:05,0.057,0.0,0.033,0.001
17/06/2023,05:35:04,0.058,0.0,0.034,0.001
17/06/2023,05:36:04,0.058,0.0,0.035,0.001
17/06/2023,05:37:04,0.059,0.0,0.036,0.001
17/06/2023,05:38:05,0.060,0.0,0.037,0.001
17/06/2023,05:39:04,0.061,0.0,0.038,0.001
17/06/2023,05:40:04,0.062,0.0,0.039,0.001
17/06/2023,05:41:04,0.062,0.0,0.04,0.001
17/06/2023,05:42:05,0.063,0.0,0.041,0.001
17/06/2023,05:43:04,0.064,0.0,0.042,0.001
17/06/2023,05:44:05,0.064,0.0,0.043,0.001
17/06/2023,05:45:05,0.065,0.0,0.044,0.001
17/06/2023,05:46:04,0.066,0.0,0.045,0.001
17/06/2023,05:47:05,0.068,0.0,0.046,0.001
17/06/2023,05:48:04,0.069,0.0,0.048,0.002
17/06/2023,05:49:05,0.072,0.0,0.049,0.001
17/06/2023,05:50:04,0.072,0.0,0.05,0.001
17/06/2023,05:51:05,0.075,0.0,0.051,0.001
17/06/2023,05:52:04,0.078,0.0,0.053,0.002
17/06/2023,05:53:05,0.079,0.0,0.054,0.001
17/06/2023,05:54:05,0.081,0.0,0.055,0.001
17/06/2023,05:55:04,0.082,0.0,0.056,0.001
17/06/2023,05:56:04,0.086,0.0,0.058,0.002
17/06/2023,05:57:04,0.088,0.0,0.059,0.001
17/06/2023,05:58:05,0.089,0.0,0.061,0.002
17/06/2023,05:59:05,0.090,0.0,0.062,0.001
17/06/2023,06:00:04,0.092,0.0,0.064,0.002
17/06/2023,06:01:05,0.094,0.0,0.065,0.001
17/06/2023,06:02:05,0.096,0.0,0.067,0.002
17/06/2023,06:03:04,0.098,0.0,0.069,0.002
17/06/2023,06:04:04,0.100,0.0,0.07,0.001
17/06/2023,06:05:05,0.102,0.0,0.072,0.002
17/06/2023,06:06:04,0.105,0.0,0.074,0.002
17/06/2023,06:07:04,0.107,0.0,0.075,0.001
17/06/2023,06:08:04,0.110,0.0,0.077,0.002
17/06/2023,06:09:05,0.112,0.0,0.079,0.002
17/06/2023,06:10:05,0.116,0.0,0.081,0.002
17/06/2023,06:11:04,0.119,0.0,0.083,0.002
17/06/2023,06:12:05,0.122,0.0,0.085,0.002
17/06/2023,06:13:04,0.124,0.0,0.087,0.002
17/06/2023,06:14:04,0.126,0.0,0.089,0.002
17/06/2023,06:15:05,0.128,0.0,0.091,0.002
17/06/2023,06:16:04,0.128,0.0,0.093,0.002
17/06/2023,06:17:05,0.129,0.0,0.095,0.002
17/06/2023,06:18:04,0.129,0.0,0.098,0.003
17/06/2023,06:19:05,0.131,0.0,0.1,0.002
17/06/2023,06:20:04,0.132,0.0,0.102,0.002
17/06/2023,06:21:04,0.131,0.0,0.104,0.002
17/06/2023,06:22:04,0.131,0.0,0.106,0.002
17/06/2023,06:23:05,0.131,0.0,0.109,0.003
17/06/2023,06:24:04,0.128,0.0,0.111,0.002
17/06/2023,06:25:05,0.126,0.0,0.113,0.002
17/06/2023,06:26:04,0.126,0.0,0.115,0.002
17/06/2023,06:27:05,0.122,0.0,0.117,0.002
17/06/2023,06:28:05,0.120,0.0,0.119,0.002
17/06/2023,06:29:04,0.116,0.0,0.121,0.002
17/06/2023,06:30:05,0.115,0.0,0.123,0.002
17/06/2023,06:31:04,0.111,0.0,0.125,0.002
17/06/2023,06:32:04,0.110,0.0,0.127,0.002
17/06/2023,06:33:05,0.108,0.0,0.128,0.001
17/06/2023,06:34:05,0.104,0.0,0.13,0.002
17/06/2023,06:35:04,0.104,0.0,0.132,0.002
17/06/2023,06:36:04,0.100,0.0,0.134,0.002
17/06/2023,06:37:05,0.097,0.0,0.135,0.001
17/06/2023,06:38:05,0.095,0.0,0.137,0.002
17/06/2023,06:39:04,0.092,0.0,0.138,0.001
17/06/2023,06:40:05,0.090,0.0,0.14,0.002
17/06/2023,06:41:04,0.090,0.0,0.141,0.001
17/06/2023,06:42:05,0.089,0.0,0.143,0.002
17/06/2023,06:43:05,0.090,0.0,0.144,0.001
17/06/2023,06:44:05,0.091,0.0,0.146,0.002
17/06/2023,06:45:04,0.092,0.0,0.147,0.001
17/06/2023,06:46:05,0.094,0.0,0.149,0.002
17/06/2023,06:47:05,0.097,0.0,0.151,0.002
17/06/2023,06:48:05,0.101,0.0,0.152,0.001
17/06/2023,06:49:04,0.104,0.0,0.154,0.002
17/06/2023,06:50:05,0.104,0.0,0.156,0.002
17/06/2023,06:51:04,0.105,0.0,0.157,0.001
17/06/2023,06:52:05,0.103,0.0,0.159,0.002
17/06/2023,06:53:04,0.104,0.0,0.161,0.002
17/06/2023,06:54:05,0.105,0.0,0.163,0.002
17/06/2023,06:55:04,0.106,0.0,0.164,0.001
17/06/2023,06:56:05,0.111,0.0,0.166,0.002
17/06/2023,06:57:04,0.115,0.0,0.168,0.002
17/06/2023,06:58:05,0.119,0.0,0.17,0.002
17/06/2023,06:59:04,0.122,0.0,0.172,0.002
17/06/2023,07:00:04,0.127,0.0,0.174,0.002
17/06/2023,07:01:05,0.131,0.0,0.176,0.002
17/06/2023,07:02:04,0.133,0.0,0.179,0.003
17/06/2023,07:03:05,0.137,0.0,0.181,0.002
17/06/2023,07:04:05,0.141,0.0,0.183,0.002
17/06/2023,07:05:04,0.144,0.0,0.185,0.002
17/06/2023,07:06:05,0.148,0.0,0.188,0.003
17/06/2023,07:07:04,0.152,0.0,0.19,0.002
17/06/2023,07:08:05,0.155,0.0,0.193,0.003
17/06/2023,07:09:04,0.156,0.0,0.196,0.003
17/06/2023,07:10:04,0.157,0.0,0.198,0.002
17/06/2023,07:11:05,0.156,0.0,0.201,0.003
17/06/2023,07:12:05,0.156,0.0,0.203,0.002
17/06/2023,07:13:05,0.156,0.0,0.206,0.003
17/06/2023,07:14:04,0.156,0.0,0.209,0.003
17/06/2023,07:15:05,0.158,0.0,0.211,0.002
17/06/2023,07:16:04,0.159,0.0,0.214,0.003
17/06/2023,07:17:05,0.161,0.0,0.216,0.002
17/06/2023,07:18:04,0.161,0.0,0.219,0.003
17/06/2023,07:19:04,0.159,0.0,0.222,0.003
17/06/2023,07:20:05,0.155,0.0,0.224,0.002
17/06/2023,07:21:05,0.150,0.0,0.227,0.003
17/06/2023,07:22:05,0.147,0.0,0.23,0.003
17/06/2023,07:23:04,0.143,0.0,0.232,0.002
17/06/2023,07:24:05,0.142,0.0,0.234,0.002
17/06/2023,07:25:04,0.142,0.0,0.237,0.003
17/06/2023,07:26:05,0.144,0.0,0.239,0.002
17/06/2023,07:27:05,0.146,0.0,0.241,0.002
17/06/2023,07:28:04,0.150,0.0,0.244,0.003
17/06/2023,07:29:04,0.153,0.0,0.246,0.002
17/06/2023,07:30:05,0.157,0.0,0.249,0.003
17/06/2023,07:31:05,0.159,0.0,0.252,0.003
17/06/2023,07:32:05,0.160,0.0,0.254,0.002
17/06/2023,07:33:05,0.162,0.0,0.257,0.003
17/06/2023,07:34:05,0.162,0.0,0.26,0.003
17/06/2023,07:35:05,0.162,0.0,0.262,0.002
17/06/2023,07:36:05,0.162,0.0,0.265,0.003
17/06/2023,07:37:05,0.160,0.0,0.268,0.003
17/06/2023,07:38:04,0.160,0.0,0.27,0.002
17/06/2023,07:39:05,0.158,0.0,0.273,0.003
17/06/2023,07:40:05,0.158,0.0,0.276,0.003
17/06/2023,07:41:04,0.158,0.0,0.278,0.002
17/06/2023,07:42:05,0.160,0.0,0.281,0.003
17/06/2023,07:43:05,0.164,0.0,0.284,0.003
17/06/2023,07:44:05,0.165,0.0,0.286,0.002
17/06/2023,07:45:05,0.166,0.0,0.289,0.003
17/06/2023,07:46:04,0.169,0.0,0.292,0.003
17/06/2023,07:47:05,0.172,0.0,0.295,0.003
17/06/2023,07:48:04,0.175,0.0,0.298,0.003
17/06/2023,07:49:05,0.178,0.0,0.301,0.003
17/06/2023,07:50:04,0.183,0.0,0.304,0.003
17/06/2023,07:51:05,0.188,0.0,0.307,0.003
17/06/2023,07:52:04,0.194,0.0,0.31,0.003
17/06/2023,07:53:05,0.198,0.0,0.313,0.003
17/06/2023,07:54:04,0.203,0.0,0.317,0.004
17/06/2023,07:55:05,0.207,0.0,0.32,0.003
17/06/2023,07:56:05,0.208,0.0,0.323,0.003
17/06/2023,07:57:04,0.207,0.0,0.327,0.004
17/06/2023,07:58:05,0.204,0.0,0.33,0.003
17/06/2023,07:59:05,0.200,0.0,0.334,0.004
17/06/2023,08:00:04,0.195,0.0,0.337,0.003
17/06/2023,08:01:05,0.189,0.0,0.34,0.003
17/06/2023,08:02:05,0.184,0.0,0.343,0.003
17/06/2023,08:03:04,0.183,0.0,0.346,0.003
17/06/2023,08:04:05,0.184,0.0,0.349,0.003
17/06/2023,08:05:04,0.187,0.0,0.352,0.003
17/06/2023,08:06:05,0.191,0.0,0.356,0.004
17/06/2023,08:07:04,0.198,0.0,0.359,0.003
17/06/2023,08:08:05,0.205,0.0,0.362,0.003
17/06/2023,08:09:04,0.210,0.0,0.366,0.004
17/06/2023,08:10:05,0.214,0.0,0.369,0.003
17/06/2023,08:11:04,0.216,0.0,0.373,0.004
17/06/2023,08:12:05,0.215,0.0,0.376,0.003
17/06/2023,08:13:05,0.213,0.0,0.38,0.004
17/06/2023,08:14:04,0.210,0.0,0.383,0.003
17/06/2023,08:15:05,0.207,0.0,0.387,0.004
17/06/2023,08:16:05,0.202,0.0,0.39,0.003
17/06/2023,08:17:06,0.198,0.0,0.394,0.004
17/06/2023,08:18:04,0.194,0.0,0.397,0.003
17/06/2023,08:19:05,0.193,0.0,0.4,0.003
17/06/2023,08:20:05,0.191,0.0,0.403,0.003
17/06/2023,08:21:04,0.192,0.0,0.406,0.003
17/06/2023,08:22:05,0.194,0.0,0.41,0.004
17/06/2023,08:23:04,0.198,0.0,0.413,0.003
17/06/2023,08:24:05,0.200,0.0,0.416,0.003
17/06/2023,08:25:05,0.203,0.0,0.42,0.004
17/06/2023,08:26:04,0.208,0.0,0.423,0.003
17/06/2023,08:27:05,0.216,0.0,0.427,0.004
17/06/2023,08:28:05,0.226,1.0,0.43,0.003
17/06/2023,08:29:05,0.239,1.0,0.434,0.004
17/06/2023,08:30:04,0.253,1.0,0.438,0.004
17/06/2023,08:31:05,0.268,1.0,0.443,0.005
17/06/2023,08:32:04,0.284,1.0,0.447,0.004
17/06/2023,08:33:05,0.302,1.0,0.452,0.005
17/06/2023,08:34:05,0.322,1.0,0.457,0.005
17/06/2023,08:35:05,0.335,1.0,0.463,0.006
17/06/2023,08:36:04,0.342,1.0,0.468,0.005
17/06/2023,08:37:05,0.342,1.0,0.474,0.006
17/06/2023,08:38:05,0.337,1.0,0.48,0.006
17/06/2023,08:39:05,0.334,1.0,0.485,0.005
17/06/2023,08:40:05,0.330,1.0,0.491,0.006
17/06/2023,08:41:04,0.325,1.0,0.496,0.005
17/06/2023,08:42:05,0.315,1.0,0.502,0.006
17/06/2023,08:43:04,0.302,1.0,0.507,0.005
17/06/2023,08:44:03,0.288,1.0,0.512,0.005
17/06/2023,08:45:05,0.274,1.0,0.516,0.004
17/06/2023,08:46:05,0.261,1.0,0.521,0.005
17/06/2023,08:47:05,0.250,1.0,0.525,0.004
17/06/2023,08:48:05,0.242,1.0,0.529,0.004
17/06/2023,08:49:05,0.232,1.0,0.533,0.004
17/06/2023,08:50:05,0.225,1.0,0.537,0.004
17/06/2023,08:51:05,0.217,0.0,0.541,0.004
17/06/2023,08:52:05,0.211,0.0,0.544,0.003
17/06/2023,08:53:05,0.207,0.0,0.548,0.004
17/06/2023,08:54:05,0.203,0.0,0.551,0.003
17/06/2023,08:55:05,0.204,0.0,0.555,0.004
17/06/2023,08:56:05,0.206,0.0,0.558,0.003
17/06/2023,08:57:05,0.211,0.0,0.561,0.003
17/06/2023,08:58:04,0.216,0.0,0.565,0.004
17/06/2023,08:59:05,0.224,1.0,0.569,0.004
17/06/2023,09:00:05,0.233,1.0,0.573,0.004
17/06/2023,09:01:05,0.245,1.0,0.576,0.003
17/06/2023,09:02:05,0.257,1.0,0.581,0.005
17/06/2023,09:03:04,0.269,1.0,0.585,0.004
17/06/2023,09:04:05,0.281,1.0,0.59,0.005
17/06/2023,09:05:04,0.291,1.0,0.594,0.004
17/06/2023,09:06:05,0.300,1.0,0.599,0.005
17/06/2023,09:07:05,0.309,1.0,0.604,0.005
17/06/2023,09:08:05,0.324,1.0,0.61,0.006
17/06/2023,09:09:05,0.344,1.0,0.615,0.005
17/06/2023,09:10:05,0.369,1.0,0.621,0.006
17/06/2023,09:11:05,0.398,1.0,0.628,0.007
17/06/2023,09:12:05,0.431,1.0,0.634,0.006
17/06/2023,09:13:05,0.458,1.0,0.642,0.008
17/06/2023,09:14:05,0.473,1.0,0.65,0.008
17/06/2023,09:15:05,0.475,1.0,0.657,0.007
17/06/2023,09:16:04,0.476,1.0,0.665,0.008
17/06/2023,09:17:05,0.489,1.0,0.673,0.008
17/06/2023,09:18:05,0.521,1.0,0.682,0.009
17/06/2023,09:19:04,0.566,1.0,0.691,0.009
17/06/2023,09:20:05,0.617,1.0,0.701,0.01
17/06/2023,09:21:05,0.692,2.0,0.712,0.011
17/06/2023,09:22:05,0.741,2.0,0.724,0.012
17/06/2023,09:23:05,0.792,2.0,0.737,0.013
17/06/2023,09:24:05,0.855,2.0,0.75,0.013
17/06/2023,09:25:05,0.872,2.0,0.765,0.015
17/06/2023,09:26:05,0.885,2.0,0.78,0.015
17/06/2023,09:27:04,0.911,2.0,0.795,0.015
17/06/2023,09:28:05,0.967,2.0,0.81,0.015
17/06/2023,09:29:05,1.011,2.0,0.827,0.017
17/06/2023,09:30:04,1.084,2.0,0.844,0.017
17/06/2023,09:31:05,1.053,2.0,0.862,0.018
17/06/2023,09:32:05,1.062,2.0,0.88,0.018
17/06/2023,09:33:05,1.136,3.0,0.898,0.018
17/06/2023,09:34:04,1.196,3.0,0.918,0.02
17/06/2023,09:35:08,1.181,3.0,0.939,0.021
17/06/2023,09:36:05,1.137,3.0,0.958,0.019
17/06/2023,09:37:05,1.067,2.0,0.976,0.018
17/06/2023,09:38:04,1.073,2.0,0.993,0.017
17/06/2023,09:39:05,1.113,3.0,1.011,0.018
17/06/2023,09:40:04,1.074,2.0,1.03,0.019
17/06/2023,09:41:05,0.983,2.0,1.047,0.017
17/06/2023,09:42:04,0.912,2.0,1.063,0.016
17/06/2023,09:43:05,0.876,2.0,1.077,0.014
17/06/2023,09:44:05,0.803,2.0,1.091,0.014
17/06/2023,09:45:04,0.772,2.0,1.104,0.013
17/06/2023,09:46:04,0.746,2.0,1.117,0.013
17/06/2023,09:47:05,0.721,2.0,1.129,0.012
17/06/2023,09:48:04,0.699,2.0,1.141,0.012
17/06/2023,09:49:05,0.675,2.0,1.153,0.012
17/06/2023,09:50:05,0.653,2.0,1.164,0.011
17/06/2023,09:51:05,0.640,1.0,1.174,0.01
17/06/2023,09:52:05,0.631,1.0,1.185,0.011
17/06/2023,09:53:04,0.627,1.0,1.195,0.01
17/06/2023,09:54:05,0.623,1.0,1.206,0.011
17/06/2023,09:55:05,0.616,1.0,1.217,0.011
17/06/2023,09:56:05,0.610,1.0,1.226,0.009
17/06/2023,09:57:05,0.608,1.0,1.237,0.011
17/06/2023,09:58:05,0.607,1.0,1.247,0.01
17/06/2023,09:59:05,0.607,1.0,1.257,0.01